Location: Marsån
(66.4167°N, 22.2833°E)
Time: 11:48:40
(UTC+00:00)

Cosmos 923 Rocket - Pass Details

Date: 24 February 2024
Orbit: 756 x 783 km, 74.0° (Epoch: 15 April)

Event Time Altitude Azimuth Distance (km) Brightness Sun altitude
Rises 19:36:08 0° 318° (NW) 3,227 8.6 -24.8°
Reaches altitude 10° 19:38:31 10° 317° (NW) 2,300 7.5 -25.0°
Maximum altitude 19:43:43 78° 232° (SW) 786 3.9 -25.4°
Enters shadow 19:44:07 72° 186° (S) 803 3.9 -25.4°
